CZ-6A R/B, 68197

Orbit data source: Space-Track

CZ-6A R/B, 68197 is space debris in LEO originally from a launch on Sun, 15 Mar 2026 UTC launched from the Taiyaun Space Center, China (TSC). Debris objects in space refer to the collection of defunct objects orbiting the Earth. Examples of debris include non-operational satellites, rocket bodies, and fragments generated from explosions, collisions, or faulty payload assembly.

Loading next visibility...
Identifier
68197, 2026-051B
Orbit
LEO
Country
Flag of CNCN / PRC
Related business
Manufacturer
SAST
Mission
Spacecraft
Bus & Motor
CZ-6A STAGE 2, YF-115
Mass
~6,000 kg wet, ~6,000 kg dry
Launch date (UTC)
2026-03-15 (3 months ago)
Launch vehicle
Unknown
Launch site
Taiyaun Space Center, China (TSC)
Object type
Payload
Rocket body
Debris
Shape & HBR
Unknown shape, 4.2 m
Radar Cross Section
Large (>1 m²)

Expand to show TLE details & history
Last TLE update: 10 hours ago

TLE from 10 hours ago
0 CZ-6A R/B
1 68197U 26051B   26171.42753076  .00000540  00000-0  41475-4 0  9990
2 68197 142.0331  42.4370 0185255  76.9465 285.1895 14.56474838 14148
Epoch: 2026-06-20T10:15Z
TLE epoch observation values (Epoch: 2026-06-20T10:15:38.657Z)
Latitude
-0°
Longitude
-20.11638°
Altitude
671.733 km
Speed
7.54 km/s
True Right ascension
02h 49m 44s
True Declination
0° 00' 00"
Sunlit
Object was in daylight at epoch
Visualization orbit readout
Latitude
Unknown
Longitude
Unknown
Altitude
Unknown
Speed
Unknown
Apparent Right ascension
Unknown
Apparent Declination
Unknown
Sunlit
N/A
Visualization observer readout
Local Sidereal Time
07:21:53
Azimuth
Unknown
Elevation
Unknown
Doppler factor
Unknown
Orbital elements
Apogee altitude
838.535 km
Perigee altitude
576.013 km
Semi-major axis
7,085.411 km
Eccentricity
0.01853
Inclination
142.0331°
RAAN
42.437°
Arg. of periapsis
76.9465°
True anomaly
283.12874°
Mean anomaly
285.1895°
Eccentric anomaly
284.16032°
Mean motion
3.63911 °/min
Orbital period
98.93 mins
BSTAR
0.000041475
Loading maneuver chart data...
Computing Atmospheric mass density...
Loading historical data...
Loading historical data...
Loading historical data...
Loading historical data...
Loading historical data...
Loading historical data...
Loading historical data...
Other satellites on launch #51 in the year 2026 (2026-03-15 UTC)

Documentation

Showing up to 5 results
|